Tracking 31028 objects as of 17-Jul-2025
HD Live streaming from Space Station
objects crossing your sky now

STARLINK-34312

Track STARLINK-34312 now!
10-day predictions
STARLINK-34312 is classified as:


NORAD ID: 64711
Int'l Code: 2025-142R
Perigee: 397.9 km
Apogee: 402.3 km
Inclination: 70.0 °
Period: 92.4 minutes
Semi major axis: 6771 km
RCS: Unknown
Launch date: June 28, 2025
Source: United States (US)
Launch site: AIR FORCE WESTERN TEST RANGE (AFWTR)
Your satellite tracking list
Your tracking list is empty




NASA's NSSDC Master Catalog

Two Line Element Set (TLE):
1 64711U 25142R   25198.25002315 -.01554415  00000-0 -23110-1 0  9991
2 64711  70.0008 198.3061 0003278 277.1559 276.8250 15.58162712  4114
Source of the keplerian elements: AFSPC